Regional Weather Roundup
Issued by NWS New Orleans/Baton Rouge, LA

Home | Current Version | Previous Version | Text Only | Print | Product List | Glossary On
Versions: 1 2 3 4 5 6 7 8 9 10 11 12 13 14 15 16 17 18 19 20 21 22 23 24 25 26 27 28 29 30 31 32 33 34 35 36 37 38 39 40 41 42 43 44 45 46 47 48 49 50
438
ASUS44 KLIX 301411
RWRLIX
NEW ORLEANS REGIONAL WEATHER ROUNDUP
NATIONAL WEATHER SERVICE NEW ORLEANS LA
900 AM CDT TUE AUG 30 2016

NOTE: "FAIR" INDICATES FEW OR NO CLOUDS BELOW 12,000 FEET WITH NO
      SIGNIFICANT WEATHER AND/OR OBSTRUCTIONS TO VISIBILITY.
      SKY/WX - SKY CONDITION AND SIGNIFICANT WEATHER.
      TMP - AIR TEMPERATURE.     DP    - DEWPOINT TEMPERATURE.
      RH  - RELATIVE HUMIDITY.   PRES  - PRESSURE.
      HI  - HEAT INDEX.          WCI   - WIND CHILL INDEX.

*  THESE STATIONS ARE NOT NWS OR FAA STATIONS AND ARE NOT UNDER
   NWS QUALITY CONTROL.

LAZ038-040-048-061>063-065>067-069-301500-
SOUTHEAST LOUISIANA

CITY           SKY/WX    TMP DP  RH WIND       PRES   REMARKS
N.O. AUDUBON   NOT AVBL
N.O. INTL ARPT MOSUNNY   85  76  74 NE12      29.96S
N.O. LAKEFRONT SUNNY     83  75  77 NE12      29.97R
N.O. DOWNTOWN*   N/A     84  76  76 VRB6      29.97R
RESERVE*         N/A     84  77  77 NE6       29.97S
SLIDELL        SUNNY     81  75  82 NE6       29.97R
BATON ROUGE    SUNNY     81  75  82 NE7       29.98R
BOOTHVILLE     SUNNY     85  78  80 E12       29.94R HX  96
BELLE CHASSE   NOT AVBL
BOGALUSA*        N/A     82  72  73 E6        30.01R
GALLIANO*      SUNNY    N/A N/A N/A NE8       29.95S
NEW ROADS*       N/A     79  75  86 NE5       29.99R
GONZALES*        N/A     82  74  78 NE5       29.96S
HAMMOND*       SUNNY     82  72  69 NE3       29.98R
HOUMA*         SUNNY     81  79  94 N6        29.95S
PORT FOURCHON* SUNNY     84  77  79 NE15      29.94R

$$

MSZ070-080>082-301500-
SOUTHERN MISSISSIPPI

CITY           SKY/WX    TMP DP  RH WIND       PRES   REMARKS
MCCOMB         SUNNY     80  71  74 NE7       30.01R
GULFPORT       SUNNY     83  75  77 NE8       29.96R
BILOXI         SUNNY     83  76  80 NE12      29.96S
PASCAGOULA     SUNNY     82  77  84 NE6       29.96S
STENNIS ARPT*  MOSUNNY   81  70  69 E7        29.97R

$$

COASTAL OBSERVATIONS
LAKE AND NEARSHORE STATIONS

STATION/POSITION TIME  TEMP    WIND        PRES    WAVE
                       AIR SEA DIR/SP/G            HT/PER
                 (UTC) (F)     (DEG/KT/KT) (MB)    (FT/S)
PASCAGOULA       1300   80      40/  7/ 10 1014.1
WAVELAND YACHT   1300   79 84   70/ 11/ 13 1014.6
GRAND ISLE       1300   83 85   50/  9/ 13 1013.7
SOUTHWEST PASS   1300           50/ 10/ 13   N/A
NEW CANAL        1300   81 84   50/ 11/ 13 1013.6
SHELL BEACH      1300   82 84   50/ 15/ 17 1014.1

OFFSHORE STATIONS

STATION/POSITION TIME  TEMP    WIND        PRES    WAVE
                       AIR SEA DIR/SP/G            HT/PER
                 (UTC) (F)     (DEG/KT/KT) (MB)    (FT/S)
64 S DAUPHIN ISL 1300   85 85   70/ 14/ 17 1012.5

$$





USA.gov is the U.S. government's official web portal to all federal, state and local government web resources and services.